Weather in Konishevka

Russia / Kursk Oblast     51°50′31″N   35°17′29″E
temp.,
°C
wind,
m/s
gust,
m/s
humid.,
%
clouds,
%
prec.,
mm/h
press.,
hPa
HPBL,
m
16 september, thu
thu1600:00+8nw34630 0.0 101860
03:00+6nnw34714 0.0 101864
06:00+5n34810 0.0 101967
09:00+10n35540 0.0 1020448
12:00+15n34395 0.0 10201364
15:00+17nnw33345 0.0 10191585
18:00+14n23441 0.0 101959
21:00+9ne225998 0.0 102011
17 september, fri
fri1700:00+8e1164100 0.0 101910
03:00+7ese1167100 0.0 101910
06:00+7sse116770 0.0 101810
09:00+12se114894 0.0 1017276
12:00+11ne3465100 0.2 1017218
15:00+9ene3584100 0.8 1017172
18:00+9e4792100 1.8 1016234
21:00+9e4896100 7.8 1016284
18 september, sat
sat1800:00+9e51096100 4.1 1016344
03:00+9e71296100 7.8 1015430
06:00+9e71395100 5.0 1015456
09:00+9ese81595100 9.1 1015578
12:00+9ese81695100 10.4 1014687
15:00+10ese91795100 16.9 1014737
18:00+10ese91694100 3.9 1014650
21:00+9ese81794100 6.0 1015671
19 september, sun
sun1900:00+9ese91893100 1.1 1014689
03:00+10ese71392100 1.4 1014681
06:00+9ese51195100 2.1 1014566
09:00+9ese51095100 2.8 1014535
12:00+9ese4895100 0.3 1014439
15:00+9e5895100 0.5 1013435
18:00+9e4796100 0.0 1012391
21:00+9ene3696100 0.1 1012373
20 september, mon
mon2000:00+8ene4796100 0.0 1012291
03:00+8ne4795100 0.0 1011286
06:00+8ne4896100 0.0 1010328
09:00+9ene4795100 0.0 1010343
12:00+9ene4696100 0.5 1009315
15:00+11e3597100 3.3 1008304
18:00+10e3498100 1.6 1008213
21:00+10se249894 1.6 1008143